EHI
6 12 15 10 5 4 4 4 3 2 2 1 0 0 0 0 0 0 0 0 0 1 0 0 0 0 0 0 0 0 0 0 0 0 0 0 0 0 0 0 0 0 0
8 13 16 11 6 4 5 5 5 4 3 3 1 0 0 0 0 0 0 0 0 1 0 0 0 0 0 0 0 0 0 0 0 0 0 0 0 0 0 0 0 0 0
9 12 15 12 8 5 5 6 5 4 4 5 3 1 0 1 1 0 0 0 0 0 0 0 0 0 0 0 0 0 0 0 0 0 0 0 0 0 0 0 0 0 0
9 11 13 13 9 5 4 6 5 2 3 5 4 2 1 2 2 1 0 0 0 0 0 1 1 1 0 0 0 0 0 0 0 0 0 0 0 0 0 0 0 0 0
9 10 13 14 10 5 4 4 3 1 1 3 4 2 1 2 2 2 1 1 0 0 0 1 2 1 0 0 0 0 0 0 0 0 0 0 0 0 0 0 0 0 0
8 9 11 12 9 5 3 3 2 0 1 2 3 2 1 1 1 2 2 1 0 0 0 0 1 1 0 0 1 0 0 0 0 0 0 0 0 0 0 0 0 0 0
7 7 8 9 8 5 3 3 2 1 0 2 2 2 1 1 0 1 1 1 0 0 0 1 1 1 0 0 0 0 0 0 0 0 0 0 0 0 0 0 0 0 0
6 6 7 7 7 5 4 3 2 1 1 2 2 2 2 1 0 0 0 0 0 0 0 1 1 2 1 1 0 0 0 0 0 0 0 0 0 0 0 0 0 0 0
5 5 5 4 3 3 3 3 2 1 1 2 2 1 1 1 0 0 0 0 0 0 0 0 1 2 2 1 0 0 0 0 0 0 0 0 0 0 0 0 0 0 0
4 4 4 3 1 1 2 2 1 0 1 2 2 1 0 0 0 0 0 0 0 0 0 0 0 1 1 0 0 0 0 0 0 0 0 0 0 0 0 0 0 0 0
4 4 5 5 3 1 2 2 1 0 0 1 1 0 0 0 0 0 0 0 0 0 0 0 0 0 0 0 0 0 0 0 0 0 0 0 0 0 0 0 0 0 0
5 5 6 6 5 5 4 3 2 1 0 0 0 0 0 0 0 0 0 0 0 0 0 0 0 0 0 0 0 0 0 0 0 0 0 0 0 0 0 0 0 0 0
6 6 5 5 5 6 6 6 6 3 1 1 1 1 1 1 1 0 0 0 0 0 0 0 0 0 0 0 0 0 0 0 0 0 0 0 0 0 0 0 0 0 0
6 6 5 4 3 3 5 7 7 6 3 2 3 2 2 2 1 0 0 0 0 0 0 0 0 0 0 0 0 0 0 0 0 0 0 0 0 0 0 0 0 0 0
5 5 4 3 1 1 2 4 6 7 5 3 3 3 2 2 1 0 0 0 0 0 0 0 0 0 0 0 0 0 0 0 0 0 0 0 0 0 0 0 0 0 0
3 2 2 1 0 0 0 2 6 8 7 4 2 1 2 3 2 1 0 0 0 0 0 0 0 0 0 0 0 0 0 0 0 0 0 0 0 0 0 0 0 0 0
1 0 0 0 0 0 0 1 4 7 7 4 2 1 1 2 2 1 0 0 0 0 0 0 0 0 0 0 0 0 0 0 0 0 0 0 0 0 0 0 0 0 0
2 1 0 0 0 0 0 0 2 4 5 4 3 1 0 1 1 0 0 0 0 0 0 0 0 0 0 0 0 0 0 0 0 0 0 0 0 0 0 0 0 0 0
2 1 0 0 0 0 0 0 1 2 4 4 4 1 0 0 0 0 0 0 0 0 0 0 0 0 0 0 0 0 0 0 0 0 0 0 0 0 0 0 0 0 0
2 1 0 0 0 0 0 0 0 1 3 5 4 2 0 0 0 0 0 0 0 0 0 0 0 0 0 0 0 0 0 0 0 0 0 0 0 0 0 0 0 0 0
2 1 0 0 0 0 0 0 0 1 2 4 4 1 0 0 0 0 0 0 0 0 0 0 0 0 0 0 0 0 0 0 0 0 0 0 0 0 0 0 0 0 0
1 0 0 0 0 0 0 0 0 0 1 2 3 1 0 0 0 0 0 0 0 0 0 0 0 0 0 0 0 0 0 0 0 0 0 0 0 0 0 0 0 0 0
0 0 0 0 0 0 0 0 0 0 0 1 2 1 0 0 0 0 0 0 0 0 0 0 0 0 0 0 0 0 0 0 0 0 0 0 0 0 0 0 0 0 0
0 0 0 0 0 0 0 0 0 0 0 1 2 1 0 0 0 0 0 0 0 0 0 0 0 0 0 0 0 0 0 0 0 0 0 0 0 0 0 0 0 0 0
0 0 0 0 0 0 0 0 0 0 0 0 1 1 0 0 0 0 0 0 0 0 0 0 0 0 0 0 0 0 0 0 0 0 0 0 0 0 0 0 0 0 0
0 0 0 0 0 0 0 0 0 0 0 0 0 0 0 0 0 0 0 0 0 0 0 0 0 0 0 0 0 0 0 0 0 0 0 0 0 0 0 0 0 0 0
Wind_Speed
2 3 6 7 7 8 9 9 8 9 9 8 8 7 7 7 7 8 9 9 9 9 10 10 11 11 11 12 12 12 13 13 13 12 12 12 12 13 12 11 9 11 14
1 2 5 6 6 8 9 10 9 9 9 8 8 8 8 7 7 8 8 8 8 9 10 10 11 11 11 11 12 12 13 12 12 11 9 10 11 11 12 11 10 10 13
1 2 2 6 7 8 9 9 9 9 8 8 8 8 8 8 7 8 8 8 8 9 9 10 11 11 11 11 11 11 12 11 10 8 5 8 10 11 12 12 12 13 13
2 2 3 6 8 8 8 9 9 9 8 8 8 8 8 8 8 7 8 8 8 8 9 9 10 10 10 10 10 11 11 10 8 4 5 8 9 11 11 11 11 12 12
3 3 4 7 8 8 9 8 8 8 9 9 9 8 8 8 8 8 7 7 8 8 8 8 9 10 9 10 10 10 10 9 5 4 7 7 8 10 10 11 11 11 11
3 3 5 7 8 8 9 9 9 8 9 9 9 8 8 8 8 7 7 7 7 7 7 7 8 9 9 9 9 9 8 6 3 5 6 6 7 9 9 10 10 10 10
4 4 5 7 8 8 8 9 9 9 8 8 9 9 8 7 7 7 7 7 7 7 6 6 7 8 8 8 8 8 7 3 3 5 5 5 6 8 8 8 9 9 9
5 5 5 7 8 8 9 9 9 9 9 8 8 9 9 8 7 6 6 6 6 5 6 7 7 7 8 7 7 6 5 2 3 4 4 5 7 6 7 7 8 8 8
5 4 5 4 5 7 9 9 9 9 9 9 9 9 9 8 7 6 6 6 5 5 5 6 6 6 6 6 6 6 4 2 2 3 4 4 6 6 7 7 7 7 7
5 4 4 4 4 4 5 8 9 9 9 9 10 10 9 8 7 6 5 5 5 5 4 5 5 6 5 5 6 5 3 1 2 3 2 4 5 5 6 6 6 7 7
6 5 4 4 4 4 4 5 6 7 8 8 7 9 6 3 3 3 5 5 5 5 4 4 4 5 5 5 4 3 0 1 2 2 2 4 4 4 5 5 5 6 7
5 5 5 4 4 4 3 3 3 3 4 4 4 4 3 3 3 3 5 5 5 4 3 3 4 4 2 3 3 2 1 1 1 1 2 3 2 3 4 4 4 5 6
3 4 5 5 4 4 2 2 2 2 2 2 3 3 3 2 2 2 2 2 2 2 1 1 2 1 1 1 2 2 1 1 1 1 2 2 1 3 4 4 4 4 5
3 4 5 4 4 3 3 2 2 2 2 2 2 3 2 2 2 2 1 2 1 1 1 1 1 1 1 2 2 2 2 1 0 0 2 2 0 2 3 4 4 4 5
3 4 4 5 4 4 2 2 2 2 2 2 1 2 2 2 1 2 1 2 2 1 1 1 1 1 2 2 2 2 3 2 1 1 1 1 1 1 2 3 4 4 4
2 3 4 4 5 4 3 2 1 1 1 1 1 2 2 2 2 2 2 2 2 2 2 2 2 2 2 2 2 3 3 3 2 2 2 2 1 1 2 3 3 3 3
2 2 3 3 4 4 3 3 1 1 1 1 2 2 2 2 2 2 2 2 2 3 3 2 2 2 2 2 3 3 3 3 3 3 3 2 2 2 2 3 3 3 3
1 2 3 3 4 4 4 3 1 1 1 1 1 2 2 3 3 2 2 2 2 3 3 2 2 2 2 2 3 3 3 3 4 4 3 3 3 3 3 3 3 3 4
1 2 2 3 3 4 4 3 2 1 1 1 1 2 3 3 3 3 2 2 3 3 3 3 3 2 2 3 3 3 3 3 4 4 5 4 3 3 3 3 3 3 3
1 1 2 2 3 4 3 2 2 1 1 1 1 2 3 3 3 3 3 3 3 3 3 3 3 3 3 3 3 3 4 4 4 5 5 4 4 4 4 4 4 3 4
1 1 2 3 3 3 2 2 2 2 2 2 2 2 3 3 4 3 3 3 3 3 4 4 3 3 2 2 2 3 4 5 5 4 4 4 4 4 4 4 3 3 3
0 1 1 2 2 3 2 2 2 3 2 2 2 2 3 3 4 4 4 3 4 3 4 4 4 3 2 2 2 2 3 4 3 3 4 4 4 4 4 5 5 4 3
1 1 1 2 2 3 3 2 2 2 2 2 2 2 3 4 4 4 5 4 4 4 4 4 4 5 4 4 3 3 3 3 1 4 5 4 4 4 4 4 5 5 4
2 2 2 2 2 3 3 3 3 3 3 4 3 3 4 4 4 4 5 5 5 4 4 4 5 5 5 5 4 4 5 3 3 3 4 4 4 4 5 4 4 5 4
2 2 2 2 2 2 3 3 4 4 4 4 4 4 4 4 4 4 5 5 5 5 5 5 5 6 5 6 5 4 5 5 6 5 5 5 4 4 4 4 4 4 4
2 2 2 3 3 3 3 4 4 5 5 5 5 5 4 3 3 4 5 5 5 5 6 6 5 7 6 7 6 5 5 5 5 5 5 5 5 4 5 4 4 4 3
Wind_Direction
344 348 348 0 18 30 38 44 52 58 61 65 70 75 77 82 87 89 91 91 89 89 91 90 87 84 85 84 83 81 80 81 80 78 77 81 84 86 85 84 88 88 84
335 355 353 13 27 36 41 45 48 54 56 59 65 72 73 75 81 86 88 89 89 90 91 92 90 86 84 84 84 83 82 82 81 78 82 88 84 85 84 74 69 85 87
39 30 22 26 35 40 42 44 47 52 54 56 60 66 69 70 76 81 84 87 90 89 88 89 87 85 84 85 86 85 85 85 83 81 95 98 94 87 87 82 82 91 90
67 44 43 38 40 44 47 46 49 52 53 55 58 58 63 68 70 75 81 86 89 87 86 86 85 85 85 85 86 86 86 85 80 85 92 87 91 89 89 89 89 93 90
76 52 51 44 45 47 48 47 51 53 53 54 56 56 57 64 66 68 75 80 83 85 85 88 87 86 86 86 86 86 86 84 77 89 86 86 88 90 91 91 88 91 91
76 59 58 43 47 45 46 49 49 52 55 56 55 55 56 58 63 64 65 71 78 84 88 91 91 90 86 88 89 87 85 84 109 89 88 90 90 92 94 93 91 91 92
67 52 58 43 46 45 46 51 49 49 53 57 56 56 55 55 58 62 60 67 75 82 85 92 97 95 90 88 89 88 84 58 87 88 87 89 89 95 100 99 97 93 93
65 56 57 45 42 44 46 47 46 48 48 52 55 55 52 49 52 58 60 64 69 79 83 88 95 98 96 93 87 83 79 49 100 94 91 91 86 96 102 104 104 103 98
70 62 55 53 50 44 40 40 41 42 43 45 48 47 44 43 42 48 54 59 61 70 80 81 89 97 98 99 92 76 60 11 94 97 95 92 86 92 98 103 106 109 108
58 55 52 52 50 44 49 40 39 40 41 45 45 37 35 37 36 35 44 47 53 59 71 82 83 93 93 99 93 78 55 264 100 101 102 95 89 97 97 98 104 108 109
42 35 36 42 45 39 47 46 45 46 42 44 49 36 29 44 47 38 37 32 41 47 60 83 86 95 96 100 88 78 142 111 96 88 87 84 103 107 107 104 105 112 113
28 25 22 27 32 37 44 56 55 57 52 42 43 37 25 20 26 27 29 24 35 37 54 81 89 114 144 137 125 172 161 109 93 92 75 74 119 120 118 116 114 117 118
34 27 22 19 24 33 32 45 39 39 43 40 39 25 17 20 21 28 27 28 43 38 76 106 160 150 156 148 165 176 163 155 123 105 84 76 125 136 129 134 132 134 135
36 26 20 17 17 24 26 33 44 31 27 27 26 23 13 10 6 358 356 350 336 346 321 253 254 183 196 191 188 181 180 197 180 154 84 42 308 166 148 145 145 144 151
34 22 16 12 14 12 21 25 37 29 17 10 15 13 3 359 356 346 327 334 329 318 304 290 254 242 230 214 211 205 199 203 222 213 138 75 321 220 174 166 167 163 163
28 18 11 13 11 9 8 13 19 16 6 357 359 2 359 349 336 328 319 316 315 303 292 278 267 253 244 236 223 219 221 214 223 226 220 175 193 262 227 199 191 184 179
22 19 14 9 7 3 3 360 1 356 353 349 345 343 349 344 327 318 306 303 305 305 285 269 257 249 243 240 234 232 234 233 225 227 227 228 204 198 219 220 210 206 198
39 22 11 6 358 358 357 348 341 345 358 349 344 341 338 332 322 308 300 302 302 290 274 264 252 250 239 238 243 239 234 235 235 231 229 226 227 218 201 206 228 228 213
67 26 3 1 358 357 354 344 330 346 356 349 344 342 335 326 317 307 296 301 291 281 270 264 253 251 252 246 250 254 247 234 232 230 228 221 226 232 224 194 209 232 232
95 43 5 359 0 356 354 338 338 345 347 336 332 339 331 319 314 310 296 292 288 274 266 263 268 257 252 257 255 257 255 243 232 228 228 219 218 226 230 225 215 213 222
87 27 2 359 360 355 348 334 320 308 305 304 311 319 315 318 312 300 295 288 282 268 267 269 265 258 250 252 257 256 250 239 231 226 226 223 219 224 230 230 228 228 219
246 333 336 349 347 342 333 319 288 294 285 285 293 295 301 311 311 303 297 291 281 276 261 260 261 260 258 234 253 250 240 219 215 229 230 226 225 221 226 231 229 228 234
253 288 300 317 320 328 327 318 316 302 293 288 292 292 298 301 299 298 294 290 282 278 265 259 255 253 255 241 235 242 244 239 236 215 227 227 224 225 229 234 236 230 234
277 273 281 292 305 317 315 311 306 298 299 296 287 283 288 288 291 292 292 288 281 273 269 259 255 259 255 246 239 246 258 264 252 234 218 224 229 236 237 238 241 236 229
290 282 275 285 292 306 301 299 293 292 297 298 291 282 283 282 285 289 287 284 280 276 271 262 255 254 254 251 243 245 251 249 244 245 235 225 234 235 239 240 240 236 233
291 290 280 282 290 295 291 291 291 293 298 299 290 286 285 284 284 287 288 286 283 280 274 269 260 251 253 255 250 241 243 242 235 242 244 232 236 238 239 240 236 236 233